Date String (YYYY-MM-DD hh:mm:ss) UTC,Instrument flags,Ambient pressure (hPa),Sample flow (lpm),Bypass flow (lpm),Sample temperature (°C),Ambient temperature (°C),ASC tube jacket temperature (°C),LED temperature (°C),Box temperature (°C),Sample RH (%),Span deviation,Mass concentration (μg/m³),Mass concentration (μg/m³),Mass concentration (μg/m³)
DateTimeUTC,F1_M11,P_M11,Q1_M11,Q2_M11,T1_M11,T2_M11,T3_M11,T4_M11,T5_M11,U1_M11,ZSPAN_M11,X0_M11,X2_M11,X1_M11
2022-07-01 15:00:00,,0831.7,5.00,0.00,30.1,29.0,00.0,38.9,32.0,29.1,0000.0,0009.05,0004.76,0004.04
2022-07-01 15:01:00,,0831.7,5.00,0.00,30.1,29.1,00.0,38.9,32.1,29.0,0000.0,0009.01,0004.77,0004.05
2022-07-01 15:02:00,,0831.7,4.99,0.00,30.2,29.1,00.0,38.9,32.1,29.3,0000.0,0008.99,0004.79,0004.06
2022-07-01 15:03:00,,0831.7,5.00,0.00,30.2,29.1,00.0,39.0,32.1,29.3,0000.0,0008.45,0004.79,0004.07
2022-07-01 15:04:00,,0831.7,5.00,0.00,30.2,29.2,00.0,39.0,32.1,29.7,0000.0,0008.62,0004.82,0004.07
2022-07-01 15:05:00,,0831.8,5.01,0.00,30.2,29.2,00.0,39.0,32.1,29.5,0000.0,0009.27,0004.85,0004.07
2022-07-01 15:06:00,,0831.7,5.00,0.00,30.2,29.1,00.0,39.0,32.1,29.3,0000.0,0009.24,0004.83,0004.08
2022-07-01 15:07:00,,0831.7,4.99,0.00,30.2,28.5,00.0,38.9,32.1,29.2,0000.0,0009.27,0004.84,0004.09
2022-07-01 15:08:00,,0831.7,5.00,0.00,30.2,27.8,00.0,38.9,31.9,29.4,0000.0,0009.16,0004.83,0004.10
2022-07-01 15:09:00,,0831.7,5.01,0.00,30.1,27.6,00.0,38.9,31.8,29.2,0000.0,0009.13,0004.79,0004.11
2022-07-01 15:10:00,,0831.7,5.01,0.00,30.0,27.6,00.0,38.9,31.7,28.9,0000.0,0009.07,0004.77,0004.10
2022-07-01 15:11:00,,0831.7,4.99,0.00,30.0,27.7,00.0,38.8,31.7,29.3,0000.0,0008.94,0004.71,0004.09
2022-07-01 15:12:00,,0831.6,5.00,0.00,29.9,27.8,00.0,38.8,31.7,29.9,0000.0,0008.94,0004.69,0004.10
2022-07-01 15:13:00,,0831.6,5.01,0.00,29.9,28.0,00.0,38.8,31.7,30.0,0000.0,0008.82,0004.70,0004.11
2022-07-01 15:14:00,,0831.6,4.99,0.00,29.9,28.1,00.0,38.8,31.7,30.2,0000.0,0008.78,0004.70,0004.12
2022-07-01 15:15:00,,0831.5,5.00,0.00,29.9,28.3,00.0,38.8,31.7,30.2,0000.0,0009.07,0004.69,0004.13
2022-07-01 15:16:00,,0831.5,5.00,0.00,29.9,28.4,00.0,38.8,31.7,30.2,0000.0,0008.41,0004.67,0004.12
2022-07-01 15:17:00,,0831.5,5.01,0.00,29.9,28.5,00.0,38.7,31.8,30.7,0000.0,0008.60,0004.66,0004.08
2022-07-01 15:18:00,,0831.5,5.01,0.00,29.9,28.6,00.0,38.7,31.8,30.7,0000.0,0008.65,0004.66,0004.04
2022-07-01 15:19:00,,0831.5,4.99,0.00,29.9,28.7,00.0,38.8,31.8,30.9,0000.0,0008.74,0004.67,0004.02
2022-07-01 15:20:00,,0831.5,5.01,0.00,30.0,28.7,00.0,38.8,31.9,30.4,0000.0,0008.75,0004.68,0004.02
2022-07-01 15:21:00,,0831.5,4.99,0.00,30.0,28.8,00.0,38.8,31.9,30.2,0000.0,0008.91,0004.72,0004.05
2022-07-01 15:22:00,,0831.5,5.00,0.00,30.0,28.9,00.0,38.8,31.9,30.4,0000.0,0009.14,0004.79,0004.09
2022-07-01 15:23:00,,0831.5,4.99,0.00,30.0,28.9,00.0,38.8,31.9,30.2,0000.0,0009.60,0004.85,0004.12
2022-07-01 15:24:00,,0831.5,5.00,0.00,30.0,29.0,00.0,38.8,31.9,30.3,0000.0,0010.39,0004.86,0004.12
2022-07-01 15:25:00,,0831.5,4.99,0.00,30.0,29.0,00.0,38.8,32.0,30.1,0000.0,0010.59,0004.88,0004.14
2022-07-01 15:26:00,,0831.5,5.00,0.00,30.1,29.0,00.0,38.8,32.0,30.1,0000.0,0010.36,0004.90,0004.17
2022-07-01 15:27:00,,0831.5,4.99,0.00,30.1,28.9,00.0,38.8,32.0,30.3,0000.0,0010.98,0004.93,0004.19
2022-07-01 15:28:00,,0831.4,4.99,0.00,30.1,28.2,00.0,38.8,31.9,30.3,0000.0,0010.97,0004.98,0004.23
2022-07-01 15:29:00,,0831.4,5.00,0.00,30.0,27.7,00.0,38.7,31.8,30.4,0000.0,0011.00,0004.98,0004.25
2022-07-01 15:30:00,,0831.4,5.00,0.00,30.0,27.6,00.0,38.7,31.7,30.0,0000.0,0010.88,0004.94,0004.25
2022-07-01 15:31:00,,0831.4,5.00,0.00,29.9,27.6,00.0,38.7,31.6,29.9,0000.0,0010.66,0004.91,0004.24
2022-07-01 15:32:00,,0831.4,5.01,0.00,29.8,27.7,00.0,38.7,31.6,30.2,0000.0,0010.50,0004.87,0004.20
2022-07-01 15:33:00,,0831.4,5.01,0.00,29.8,27.8,00.0,38.7,31.6,30.4,0000.0,0010.49,0004.80,0004.14
2022-07-01 15:34:00,,0831.4,4.99,0.00,29.8,28.0,00.0,38.6,31.6,30.4,0000.0,0010.37,0004.74,0004.11
2022-07-01 15:35:00,,0831.3,5.01,0.00,29.8,28.1,00.0,38.6,31.6,30.6,0000.0,0009.72,0004.70,0004.08
2022-07-01 15:36:00,,0831.3,5.00,0.00,29.8,28.2,00.0,38.6,31.6,30.2,0000.0,0009.78,0004.70,0004.04
2022-07-01 15:37:00,,0831.3,4.99,0.00,29.8,28.3,00.0,38.6,31.7,30.0,0000.0,0009.93,0004.67,0003.98
2022-07-01 15:38:00,,0831.3,5.00,0.00,29.8,28.4,00.0,38.6,31.7,30.0,0000.0,0009.77,0004.62,0003.93
2022-07-01 15:39:00,,0831.3,4.99,0.00,29.8,28.5,00.0,38.6,31.7,30.1,0000.0,0009.70,0004.57,0003.90
2022-07-01 15:40:00,,0831.3,4.99,0.00,29.8,28.6,00.0,38.6,31.7,29.9,0000.0,0009.65,0004.55,0003.88
2022-07-01 15:41:00,,0831.3,5.00,0.00,29.9,28.7,00.0,38.6,31.8,30.0,0000.0,0009.70,0004.56,0003.87
2022-07-01 15:42:00,,0831.3,5.00,0.00,29.9,28.7,00.0,38.6,31.8,30.0,0000.0,0009.83,0004.57,0003.87
2022-07-01 15:43:00,,0831.2,5.00,0.00,29.9,28.8,00.0,38.7,31.8,29.9,0000.0,0009.93,0004.57,0003.87
2022-07-01 15:44:00,,0831.2,5.01,0.00,29.9,28.9,00.0,38.7,31.9,29.8,0000.0,0010.18,0004.59,0003.89
2022-07-01 15:45:00,,0831.2,5.00,0.00,29.9,28.9,00.0,38.7,31.9,29.7,0000.0,0009.99,0004.60,0003.87
2022-07-01 15:46:00,,0831.2,5.00,0.00,30.0,29.0,00.0,38.7,31.9,29.7,0000.0,0009.79,0004.61,0003.86
2022-07-01 15:47:00,,0831.2,5.01,0.00,30.0,28.6,00.0,38.7,31.9,29.6,0000.0,0009.50,0004.59,0003.85
2022-07-01 15:48:00,,0831.2,5.00,0.00,30.0,27.9,00.0,38.6,31.7,29.7,0000.0,0009.33,0004.63,0003.88
2022-07-01 15:49:00,,0831.2,4.99,0.00,29.9,27.5,00.0,38.6,31.6,30.0,0000.0,0009.49,0004.67,0003.91
2022-07-01 15:50:00,,0831.2,5.00,0.00,29.8,27.4,00.0,38.6,31.5,30.0,0000.0,0009.36,0004.71,0003.96
2022-07-01 15:51:00,,0831.2,5.01,0.00,29.8,27.5,00.0,38.6,31.5,30.0,0000.0,0009.33,0004.71,0003.97
2022-07-01 15:52:00,,0831.2,4.99,0.00,29.7,27.6,00.0,38.6,31.5,29.7,0000.0,0009.49,0004.71,0003.97
2022-07-01 15:53:00,,0831.2,4.99,0.00,29.7,27.8,00.0,38.5,31.5,29.7,0000.0,0009.56,0004.73,0003.99
2022-07-01 15:54:00,,0831.2,5.00,0.00,29.7,27.9,00.0,38.5,31.5,29.9,0000.0,0010.02,0004.77,0003.99
2022-07-01 15:55:00,,0831.2,5.00,0.00,29.7,28.0,00.0,38.5,31.5,29.8,0000.0,0009.97,0004.82,0004.00
2022-07-01 15:56:00,,0831.2,5.00,0.00,29.7,28.2,00.0,38.5,31.6,30.0,0000.0,0009.93,0004.84,0004.03
2022-07-01 15:57:00,,0831.2,5.00,0.00,29.7,28.3,00.0,38.5,31.6,30.1,0000.0,0009.86,0004.82,0004.03
2022-07-01 15:58:00,,0831.2,5.00,0.00,29.7,28.4,00.0,38.5,31.6,30.0,0000.0,0009.81,0004.81,0004.05
2022-07-01 15:59:00,,0831.2,5.00,0.00,29.7,28.5,00.0,38.5,31.7,29.9,0000.0,0009.75,0004.77,0004.04
